[[{"header":{"parameterUnit":"m.s-1","parameterCategory":1,"la1":30.2991,"la2":30.254,"lo1":-89.0895,"lo2":-89.0444,"dy":0.0017,"dx":0.0017,"nx":28,"ny":28,"refTime":"2024-10-04T21:00:00:Z","depth":0,"parameterNumber":2,"parameterNumberName":"U-component_of_WINDS"},"data":[0,0,0,0,0,0,0,0,0,0,0,0,0,0,0,0,0,0,0,0,0,0,0,0,0,0,0,0,0,0,0,0,0,0,0,0,0,0,0,0,0,0,0,0,0,0,0,0,0,0,0,0,0,0,0,0,0,0,-5.3963,-5.3963,0,-5.3978,-5.3978,-5.3978,-5.3886,-5.3884,-5.3881,-5.3879,-5.3895,-5.3898,-5.39,0,0,0,0,0,0,0,0,0,0,0,0,0,-5.3857,-5.3859,-5.3963,-5.3963,-5.3963,-5.3978,-5.3978,-5.3978,-5.3887,-5.3884,-5.388,-5.3877,-5.3894,-5.3897,-5.3901,0,0,0,0,0,0,0,0,0,0,0,0,0,-5.389,-5.386,-5.3963,-5.3919,-5.3915,-5.3978,-5.3978,-5.3978,-5.3887,-5.3883,-5.388,-5.3876,-5.3893,-5.3897,-5.3901,-5.4006,0,0,-5.3914,-5.3916,0,0,0,0,0,0,0,0,-5.3889,-5.3894,-5.3925,-5.3922,-5.3918,-5.3926,-5.3946,-5.3987,-5.3888,-5.3898,-5.3879,-5.3874,-5.3908,-5.3911,-5.3923,-5.4007,-5.4007,-5.3915,-5.3917,-5.3919,-5.392,0,0,0,0,0,0,0,-5.3886,-5.3893,-5.3968,-5.3926,-5.3922,-5.39,-5.39,-5.3954,-5.3925,-5.3897,-5.389,-5.3893,-5.3906,-5.3919,-5.3922,-5.4008,-5.3914,-5.3918,-5.3921,-5.3923,-5.4182,-5.4186,0,0,0,0,0,0,-5.389,-5.3892,-5.3968,-5.3969,-5.3893,-5.3905,-5.3905,-5.3927,-5.3924,-5.392,-5.3897,-5.3889,-5.3913,-5.3917,-5.3922,-5.4047,-5.3919,-5.3923,-5.3925,-5.4178,-5.4183,-5.4188,0,0,0,0,0,0,-5.3888,-5.3897,-5.3967,-5.3929,-5.3936,-5.3911,-5.3936,-5.393,-5.3943,-5.3924,-5.3918,-5.3915,-5.391,-5.3916,-5.3987,-5.4047,-5.3925,-5.3929,-5.4173,-5.4179,-5.4185,-5.4297,0,0,0,0,0,0,-5.3885,-5.3897,-5.3936,-5.393,-5.3938,-5.4031,-5.394,-5.3933,-5.395,-5.394,-5.394,-5.3936,-5.3908,-5.3981,-5.3991,-5.405,-5.3932,-5.4167,-5.4176,-5.4183,-5.4288,-5.4306,-5.4322,0,0,0,0,0,-5.3882,-5.3966,-5.3938,-5.3948,-5.3986,-5.4034,-5.4039,-5.4005,-5.3955,-5.3995,-5.3983,-5.3936,-5.4038,-5.3989,-5.3999,-5.4061,-5.4163,-5.4173,-5.4183,-5.428,-5.4303,-5.4322,0,0,0,0,0,0,-5.3979,-5.3965,-5.3934,-5.4019,-5.4029,-5.4019,-5.4067,-5.4029,-5.4053,-5.4043,-5.4,-5.4,-5.4079,-5.4076,-5.4021,-5.4164,-5.4092,-5.4105,-5.4163,-5.4184,-5.4201,-5.4201,-5.3936,0,0,0,0,0,-5.4011,-5.405,-5.4035,-5.4112,-5.4119,-5.4093,-5.4112,-5.4085,-5.4094,-5.4097,-5.409,-5.4101,-5.4136,-5.4159,-5.419,-5.4287,-5.4287,-5.4335,-5.4352,-5.4366,-5.4378,-5.4432,-5.4454,-5.4219,-5.4219,-5.4219,0,0,-5.4076,-5.4073,-5.41,-5.4132,-5.4136,-5.418,-5.4097,-5.4145,-5.4177,-5.4104,-5.4171,-5.4167,-5.4176,-5.4261,-5.4298,-5.4261,-5.4443,-5.4378,-5.439,-5.4394,-5.4444,-5.4466,-5.4486,-5.4226,-5.4225,-5.4224,0,0,-5.4217,-5.4218,-5.4283,-5.429,-5.4298,-5.4281,-5.4297,-5.4294,-5.4288,-5.4354,-5.4301,-5.4339,-5.4399,-5.4409,-5.4422,-5.457,-5.4529,-5.4581,-5.4672,-5.4725,-5.4744,-5.476,-5.4816,-5.4836,-5.4593,-5.4593,-5.4593,0,-5.4297,-5.436,-5.4322,-5.4375,-5.4392,-5.4328,-5.4395,-5.4404,-5.4422,-5.4435,-5.4394,-5.447,-5.4471,-5.4559,-5.4596,-5.4607,-5.4626,-5.4581,-5.4744,-5.476,-5.4775,-5.4827,-5.4848,-5.4599,-5.4599,-5.4598,-5.4597,0,-5.446,-5.4505,-5.4556,-5.4577,-5.4599,-5.4658,-5.463,-5.4657,-5.4629,-5.4617,-5.4686,-5.4686,-5.4717,-5.4735,-5.4707,-5.482,-5.4798,-5.4751,-5.4679,-5.4804,-5.4853,-5.4873,-5.4609,-5.4606,-5.4604,-5.4603,0,0,-5.4662,-5.4662,-5.4682,-5.4692,-5.4698,-5.4732,-5.479,-5.482,-5.4846,-5.4861,-5.491,-5.4963,-5.4921,-5.4936,-5.4909,-5.4955,-5.5077,-5.4903,-5.4903,-5.4937,-5.5204,-5.5241,-5.5265,-5.5049,-5.5052,-5.5055,-5.5204,0,-5.4803,-5.4902,-5.487,-5.4971,-5.5013,-5.4955,-5.5006,-5.5016,-5.5006,-5.5041,-5.503,-5.507,-5.501,-5.5019,-5.5062,-5.5053,-5.513,-5.5041,-5.5096,-5.5098,-5.5097,-5.529,-5.5328,-5.5468,-5.5223,-5.5226,-5.5228,0,-5.4979,-5.5003,-5.5108,-5.511,-5.5126,-5.5173,-5.52,-5.5233,-5.5244,-5.5234,-5.5252,-5.5216,-5.5275,-5.5202,-5.5283,-5.5224,-5.5244,-5.5244,-5.5248,-5.5253,-5.5172,-5.5302,-5.5512,-5.5534,-5.5257,-5.5255,-5.5253,0,-5.512,-5.5178,-5.5249,-5.5259,-5.5261,-5.5296,-5.5299,-5.5305,-5.5327,-5.5351,-5.5365,-5.5395,-5.5412,-5.5437,-5.5412,-5.536,-5.5498,-5.5422,-5.5493,-5.5495,-5.5526,-5.5525,-5.5745,-5.5536,-5.5536,-5.5536,-5.5535,0,-5.5281,-5.5349,-5.5313,-5.5357,-5.5431,-5.5395,-5.547,-5.5466,-5.5473,-5.5517,-5.5468,-5.551,-5.5472,-5.5511,-5.5491,-5.5563,-5.5571,-5.5566,-5.556,-5.5571,-5.5572,-5.5585,-5.5576,-5.5541,-5.554,-5.5539,-5.5538,0,-5.5451,-5.5429,-5.5504,-5.5501,-5.5502,-5.5557,-5.5555,-5.5597,-5.5584,-5.564,-5.5651,-5.5632,-5.5675,-5.5652,-5.5696,-5.5683,-5.5778,-5.5758,-5.5775,-5.577,-5.5844,-5.5838,-5.6081,-5.6113,-5.5882,-5.5884,-5.5886,0,-5.5556,-5.5607,-5.561,-5.5636,-5.5643,-5.5684,-5.5707,-5.5673,-5.5699,-5.5717,-5.5757,-5.5796,-5.5826,-5.5899,-5.589,-5.5925,-5.5906,-5.5989,-5.5911,-5.5922,-5.5911,-5.5909,-5.5915,-5.6005,-5.6008,-5.601,-5.6012,0,-5.5746,-5.5734,-5.5767,-5.5799,-5.5827,-5.585,-5.5869,-5.5893,-5.586,-5.5892,-5.5936,-5.596,-5.6006,-5.6047,-5.6078,-5.6082,-5.6043,-5.6037,-5.6056,-5.6069,-5.6077,-5.6076,-5.582,-5.6031,-5.603,-5.6028,-5.6027,-5.6026,-5.5888,-5.5932,-5.5942,-5.5983,-5.5994,-5.6013,-5.6053,-5.6046,-5.6082,-5.6118,-5.6096,-5.615,-5.6162,-5.6199,-5.6208,-5.625,-5.6217,-5.6244,-5.6251,-5.6259,-5.627,-5.6069,-5.6255,-5.6255,-5.6254,-5.6254,-5.6253,0,-5.6078,-5.6082,-5.612,-5.6149,-5.6181,-5.6141,-5.6161,-5.6191,-5.6238,-5.6253,-5.6284,-5.6337,-5.6377,-5.6371,-5.6408,-5.6444,-5.6427,-5.6455,-5.6453,-5.6455,-5.6296,-5.6277,-5.6468,-5.6468,-5.6468,-5.6468,-5.6468,-5.6468,-5.6181,-5.6254,-5.6243,-5.6322,-5.6325,-5.6377,-5.6392,-5.6411,-5.6422,-5.6484,-5.6517,-5.6513,-5.652,-5.6558,-5.6594,-5.6591,-5.6609,-5.6644,-5.6635,-5.6487,-5.6466,-5.6445,-5.6428,-5.6647,-5.6647,-5.6791,-5.6792,-5.6793]},{"header":{"parameterUnit":"m.s-1","parameterCategory":1,"la1":30.2991,"la2":30.254,"lo1":-89.0895,"lo2":-89.0444,"dy":0.0017,"dx":0.0017,"nx":28,"ny":28,"refTime":"2024-10-04T21:00:00:Z","depth":0,"parameterNumber":3,"parameterNumberName":"V-component_of_WINDS"},"data":[0,0,0,0,0,0,0,0,0,0,0,0,0,0,0,0,0,0,0,0,0,0,0,0,0,0,0,0,0,0,0,0,0,0,0,0,0,0,0,0,0,0,0,0,0,0,0,0,0,0,0,0,0,0,0,0,0,0,0.0088,0.0088,0,0.0146,0.0146,0.0147,0.0194,0.0194,0.0195,0.0195,0.0251,0.0252,0.0253,0,0,0,0,0,0,0,0,0,0,0,0,0,0.0015,0.0016,0.0088,0.0088,0.0089,0.0146,0.0146,0.0147,0.0193,0.0194,0.0195,0.0195,0.0251,0.0252,0.0253,0,0,0,0,0,0,0,0,0,0,0,0,0,0.0057,0.0016,0.0087,0.0119,0.0123,0.0145,0.0146,0.0147,0.0193,0.0194,0.0195,0.0195,0.0251,0.0252,0.0254,0.0249,0,0,0.0258,0.0259,0,0,0,0,0,0,0,0,0.0055,0.006,0.0114,0.0117,0.0121,0.0163,0.0141,0.0181,0.0193,0.0166,0.0195,0.0196,0.0221,0.0225,0.0234,0.0251,0.0254,0.0259,0.026,0.026,0.0261,0,0,0,0,0,0,0,0.0052,0.0057,0.0111,0.0114,0.0119,0.013,0.0136,0.0149,0.0189,0.0169,0.0172,0.0179,0.0223,0.0233,0.0236,0.0255,0.0259,0.026,0.0261,0.0261,0.0271,0.027,0,0,0,0,0,0,0.0044,0.0055,0.0109,0.0112,0.0089,0.013,0.0138,0.0149,0.0189,0.0196,0.0178,0.0181,0.023,0.0234,0.0238,0.0235,0.026,0.0262,0.0263,0.0272,0.0271,0.027,0,0,0,0,0,0,0.0042,0.0049,0.0106,0.0084,0.0093,0.0131,0.0143,0.015,0.0159,0.0196,0.0203,0.0181,0.023,0.0236,0.0246,0.0238,0.0262,0.0264,0.0273,0.0272,0.0271,0.0229,0,0,0,0,0,0,0.004,0.0048,0.0047,0.0084,0.0094,0.0114,0.0142,0.015,0.0162,0.0166,0.02,0.0207,0.0231,0.0244,0.0248,0.024,0.0265,0.0273,0.0272,0.0271,0.0231,0.0226,0.0223,0,0,0,0,0,0.0037,0.0032,0.0046,0.0052,0.0093,0.0113,0.0118,0.0148,0.0161,0.016,0.0184,0.0205,0.0238,0.0244,0.0249,0.0242,0.0274,0.0272,0.0271,0.0233,0.0227,0.0223,0,0,0,0,0,0,-0.0009,0.0037,0.0054,0.006,0.0083,0.0121,0.012,0.0141,0.0159,0.0162,0.0198,0.0205,0.0211,0.0228,0.0234,0.024,0.0259,0.0258,0.0228,0.0223,0.0219,0.0214,0.0266,0,0,0,0,0,-0.0019,-0.0005,0.0034,0.0036,0.0047,0.0082,0.0091,0.0113,0.0136,0.0146,0.017,0.0192,0.0207,0.0217,0.0233,0.0234,0.0242,0.0232,0.0228,0.0224,0.0223,0.0225,0.022,0.0265,0.0265,0.0265,0,0,-0.0038,-0.0011,-0.0005,0.0027,0.0047,0.0059,0.0089,0.01,0.0109,0.0147,0.0158,0.0177,0.0204,0.021,0.0214,0.0224,0.0212,0.0222,0.0219,0.022,0.0223,0.0218,0.0214,0.0264,0.0264,0.0264,0,0,-0.0068,-0.0046,-0.0042,-0.0022,0.0008,0.0032,0.0033,0.0068,0.0083,0.0095,0.0124,0.0135,0.016,0.0178,0.0191,0.0169,0.0189,0.0174,0.015,0.0152,0.0148,0.0145,0.0137,0.0134,0.0172,0.0172,0.0172,0,-0.0097,-0.0077,-0.0043,-0.0033,-0.0019,0.0017,0.0021,0.0038,0.0072,0.008,0.0092,0.0125,0.0146,0.0156,0.0151,0.016,0.0162,0.0169,0.0146,0.0144,0.0141,0.0134,0.0131,0.017,0.017,0.017,0.0171,0,-0.0113,-0.01,-0.01,-0.0068,-0.0054,-0.0047,-0.0013,-0.0003,0.0017,0.0039,0.0051,0.0077,0.0099,0.0104,0.0123,0.0117,0.0123,0.014,0.016,0.0134,0.0128,0.0125,0.0167,0.0168,0.0168,0.0169,0,0,-0.0173,-0.012,-0.0121,-0.0106,-0.0069,-0.0059,-0.005,-0.0027,-0.002,0.0003,0.001,0.0032,0.0048,0.0062,0.0084,0.0086,0.0067,0.0103,0.0104,0.0095,0.0061,0.0046,0.0043,0.0081,0.0081,0.008,0.0058,0,-0.0198,-0.018,-0.0148,-0.014,-0.0128,-0.0092,-0.0084,-0.0062,-0.004,-0.0027,-0.0003,0.0011,0.0032,0.0041,0.0044,0.0068,0.006,0.0071,0.0087,0.0087,0.0078,0.0039,0.0024,0.0002,0.0056,0.0055,0.0055,0,-0.0225,-0.0204,-0.0194,-0.0158,-0.0151,-0.0145,-0.0121,-0.0108,-0.0082,-0.0066,-0.005,-0.0025,-0.0015,0.0004,0.0019,0.0025,0.0034,0.0047,0.0047,0.0048,0.0068,0.0038,-0.0005,-0.0009,0.0052,0.0052,0.0052,0,-0.0271,-0.0239,-0.023,-0.0218,-0.0175,-0.0171,-0.0153,-0.0125,-0.0113,-0.0093,-0.0085,-0.0063,-0.0052,-0.0036,-0.0007,0.0005,0.0004,0.0026,0.0016,0.0015,0.0013,0.0012,-0.0031,0.0021,0.0021,0.0021,0.0021,0,-0.0303,-0.0299,-0.025,-0.0244,-0.0238,-0.0202,-0.0198,-0.0176,-0.0152,-0.0142,-0.0109,-0.0101,-0.0062,-0.0049,-0.0025,-0.0017,-0.0012,-0.0,0.0006,-0.0004,-0.0006,0.0001,0.0003,0.002,0.002,0.0021,0.0021,0,-0.0354,-0.032,-0.0308,-0.0267,-0.0257,-0.0255,-0.022,-0.0214,-0.0189,-0.0177,-0.0172,-0.0135,-0.0118,-0.0086,-0.0061,-0.0045,-0.0042,-0.0031,-0.0052,-0.0048,-0.006,-0.006,-0.0101,-0.0105,-0.005,-0.0051,-0.0051,0,-0.0377,-0.0373,-0.0331,-0.0322,-0.0305,-0.029,-0.0277,-0.024,-0.0229,-0.0197,-0.0194,-0.0174,-0.0157,-0.0131,-0.0103,-0.0083,-0.0072,-0.0087,-0.0069,-0.0078,-0.0073,-0.0075,-0.0074,-0.0093,-0.0093,-0.0094,-0.0094,0,-0.0423,-0.0406,-0.0388,-0.0364,-0.0349,-0.0329,-0.0307,-0.0302,-0.026,-0.0249,-0.023,-0.0216,-0.0189,-0.017,-0.0146,-0.0128,-0.0105,-0.01,-0.0101,-0.0112,-0.0124,-0.0119,-0.0065,-0.01,-0.0099,-0.0099,-0.0099,-0.0098,-0.0461,-0.0456,-0.0425,-0.0407,-0.0386,-0.0366,-0.0358,-0.0332,-0.0315,-0.029,-0.0269,-0.0252,-0.0225,-0.019,-0.0173,-0.016,-0.0149,-0.0151,-0.0152,-0.0153,-0.0157,-0.0125,-0.0155,-0.0155,-0.0155,-0.0155,-0.0155,0,-0.0506,-0.0484,-0.0467,-0.0437,-0.0422,-0.0399,-0.0373,-0.0363,-0.0348,-0.0324,-0.0306,-0.0285,-0.0266,-0.0235,-0.0214,-0.0209,-0.0198,-0.0205,-0.0206,-0.0202,-0.0168,-0.0169,-0.0215,-0.0215,-0.0215,-0.0215,-0.0215,-0.0215,-0.0528,-0.0517,-0.0497,-0.0476,-0.0454,-0.0437,-0.0424,-0.0406,-0.0386,-0.0363,-0.0347,-0.0326,-0.0299,-0.0275,-0.0257,-0.0248,-0.0243,-0.0253,-0.0242,-0.021,-0.0205,-0.02,-0.0201,-0.0252,-0.0252,-0.0277,-0.0278,-0.0278]}]]